DLH994K EDDH-ENBR

Flight info

Callsign DLH994K
Flight time 1h 12m
Altitude 38000
Route ELSOB3C ELSOB Y348 OMWEG DCT BADOS DCT GIKOG DCT ATTUS P992 LINVI DCT BADAB
Aircraft A320/M-SDE3FGHIRWY/LB1

Departure

Time 2026-05-06 10:43
Airport Hamburg Helmut Schmidt Airport (EDDH)

Arrival

Time 2026-05-06 11:56
Airport Bergen Airport, Flesland (ENBR)
Time Latitude Longitude Altitude Speed Heading
2026-05-06 09:50 53.63245 10.00357 49 ft 0 kts 86°
2026-05-06 10:29 53.63244 10.00340 48 ft 4 kts 84°
2026-05-06 10:30 53.63241 10.00297 43 ft 2 kts 82°
2026-05-06 10:30 53.63239 10.00258 44 ft 4 kts 95°
2026-05-06 10:30 53.63245 10.00216 46 ft 4 kts 122°
2026-05-06 10:30 53.63263 10.00185 45 ft 4 kts 158°
2026-05-06 10:31 53.63277 10.00179 48 ft 0 kts 176°
2026-05-06 10:34 53.63269 10.00179 47 ft 7 kts 179°
2026-05-06 10:34 53.63178 10.00184 48 ft 14 kts 173°
2026-05-06 10:34 53.63091 10.00193 48 ft 11 kts 182°
2026-05-06 10:35 53.63030 10.00143 48 ft 14 kts 212°
2026-05-06 10:35 53.62951 10.00056 45 ft 12 kts 213°
2026-05-06 10:35 53.62915 10.00032 48 ft 6 kts 163°
2026-05-06 10:35 53.62850 10.00058 48 ft 4 kts 200°
2026-05-06 10:36 53.62811 9.99973 46 ft 17 kts 223°
2026-05-06 10:36 53.62703 9.99872 44 ft 18 kts 207°
2026-05-06 10:36 53.62636 9.99734 44 ft 15 kts 257°
2026-05-06 10:36 53.62610 9.99510 47 ft 25 kts 259°
2026-05-06 10:37 53.62576 9.99205 45 ft 26 kts 259°
2026-05-06 10:37 53.62542 9.98908 47 ft 25 kts 259°
2026-05-06 10:37 53.62509 9.98621 47 ft 24 kts 259°
2026-05-06 10:37 53.62478 9.98344 43 ft 24 kts 259°
2026-05-06 10:38 53.62426 9.98088 45 ft 23 kts 238°
2026-05-06 10:38 53.62328 9.97884 47 ft 22 kts 229°
2026-05-06 10:38 53.62232 9.97689 47 ft 21 kts 230°
2026-05-06 10:38 53.62140 9.97502 47 ft 20 kts 230°
2026-05-06 10:39 53.62051 9.97326 47 ft 20 kts 230°
2026-05-06 10:39 53.61966 9.97151 47 ft 19 kts 230°
2026-05-06 10:39 53.61886 9.96988 47 ft 18 kts 230°
2026-05-06 10:39 53.61813 9.96842 47 ft 14 kts 230°
2026-05-06 10:40 53.61760 9.96736 47 ft 10 kts 231°
2026-05-06 10:40 53.61719 9.96653 47 ft 9 kts 229°
2026-05-06 10:40 53.61678 9.96566 47 ft 10 kts 237°
2026-05-06 10:40 53.61677 9.96450 45 ft 11 kts 297°
2026-05-06 10:41 53.61710 9.96413 47 ft 0 kts 347°
2026-05-06 10:41 53.61712 9.96412 47 ft 1 kts 347°
2026-05-06 10:41 53.61771 9.96416 46 ft 16 kts
2026-05-06 10:41 53.61875 9.96471 42 ft 16 kts 41°
2026-05-06 10:42 53.61928 9.96574 44 ft 10 kts 49°
2026-05-06 10:42 53.61955 9.96628 43 ft 5 kts 50°
2026-05-06 10:42 53.62001 9.96719 42 ft 21 kts 50°
2026-05-06 10:42 53.62250 9.97218 40 ft 90 kts 50°
2026-05-06 10:43 53.62775 9.98276 44 ft 142 kts 49°
2026-05-06 10:43 53.63447 9.99691 427 ft 159 kts 52°
2026-05-06 10:43 53.64146 10.01140 1253 ft 159 kts 50°
2026-05-06 10:44 53.65704 10.04290 2489 ft 191 kts 52°
2026-05-06 10:44 53.66562 10.06029 3490 ft 194 kts 53°
2026-05-06 10:44 53.67435 10.07802 4423 ft 200 kts 52°
2026-05-06 10:44 53.68415 10.09480 5219 ft 210 kts 35°
2026-05-06 10:45 53.69827 10.10247 6006 ft 223 kts
2026-05-06 10:45 53.71380 10.09619 6695 ft 246 kts 331°
2026-05-06 10:45 53.72841 10.07848 7160 ft 270 kts 327°
2026-05-06 10:45 53.74449 10.06058 7870 ft 282 kts 330°
2026-05-06 10:46 53.76134 10.04316 8766 ft 286 kts 329°
2026-05-06 10:46 53.77850 10.02565 9697 ft 291 kts 329°
2026-05-06 10:46 53.79611 10.00752 10323 ft 306 kts 328°
2026-05-06 10:46 53.81492 9.98788 10724 ft 327 kts 328°
2026-05-06 10:47 53.83437 9.96725 11433 ft 335 kts 328°
2026-05-06 10:47 53.85414 9.94609 12362 ft 337 kts 327°
2026-05-06 10:47 53.87401 9.92471 13240 ft 340 kts 327°
2026-05-06 10:47 53.89406 9.90301 14040 ft 344 kts 327°
2026-05-06 10:48 53.91433 9.88104 14750 ft 348 kts 326°
2026-05-06 10:48 53.93485 9.85875 15454 ft 352 kts 325°
2026-05-06 10:48 53.95516 9.83663 16155 ft 357 kts 325°
2026-05-06 10:48 53.97618 9.81373 16859 ft 361 kts 325°
2026-05-06 10:49 53.99747 9.79055 17558 ft 366 kts 326°
2026-05-06 10:49 54.01903 9.76709 18245 ft 370 kts 325°
2026-05-06 10:49 54.04080 9.74338 18834 ft 374 kts 325°
2026-05-06 10:49 54.06286 9.71930 19423 ft 378 kts 325°
2026-05-06 10:50 54.08510 9.69498 20017 ft 382 kts 325°
2026-05-06 10:50 54.10742 9.67062 20606 ft 386 kts 324°
2026-05-06 10:50 54.12994 9.64603 21175 ft 390 kts 324°
2026-05-06 10:50 54.15285 9.62090 21782 ft 393 kts 324°
2026-05-06 10:51 54.17595 9.59546 22367 ft 397 kts 324°
2026-05-06 10:51 54.19924 9.56976 22956 ft 400 kts 324°
2026-05-06 10:51 54.22274 9.54387 23518 ft 404 kts 324°
2026-05-06 10:51 54.24605 9.51823 23979 ft 408 kts 324°
2026-05-06 10:52 54.27000 9.49187 24451 ft 411 kts 324°
2026-05-06 10:52 54.29414 9.46523 24922 ft 414 kts 324°
2026-05-06 10:52 54.31849 9.43829 25364 ft 418 kts 324°
2026-05-06 10:52 54.34298 9.41108 25799 ft 421 kts 324°
2026-05-06 10:53 54.36763 9.38365 26222 ft 424 kts 324°
2026-05-06 10:53 54.39250 9.35598 26663 ft 428 kts 323°
2026-05-06 10:53 54.41753 9.32815 26872 ft 430 kts 324°
2026-05-06 10:53 54.44157 9.30138 26907 ft 430 kts 324°
2026-05-06 10:54 54.46661 9.27344 26915 ft 429 kts 324°
2026-05-06 10:54 54.49166 9.24541 26915 ft 429 kts 323°
2026-05-06 10:54 54.51666 9.21738 26918 ft 429 kts 323°
2026-05-06 10:54 54.54168 9.18928 26911 ft 429 kts 323°
2026-05-06 10:55 54.56673 9.16116 26933 ft 430 kts 323°
2026-05-06 10:55 54.59114 9.13374 26918 ft 430 kts 323°
2026-05-06 10:55 54.61617 9.10555 26919 ft 430 kts 323°
2026-05-06 10:55 54.64117 9.07734 26924 ft 430 kts 323°
2026-05-06 10:56 54.66619 9.04905 26924 ft 430 kts 323°
2026-05-06 10:56 54.69118 9.02074 26923 ft 429 kts 323°
2026-05-06 10:56 54.71580 8.99281 26923 ft 428 kts 322°
2026-05-06 10:56 54.74068 8.96452 26924 ft 428 kts 322°
2026-05-06 10:57 54.76559 8.93616 26920 ft 428 kts 322°
2026-05-06 10:57 54.79046 8.90788 26924 ft 428 kts 322°
2026-05-06 10:57 54.81536 8.87949 26926 ft 428 kts 322°
2026-05-06 10:57 54.84018 8.85109 26928 ft 428 kts 322°
2026-05-06 10:58 54.86500 8.82260 26929 ft 428 kts 322°
2026-05-06 10:58 54.88868 8.79585 26928 ft 429 kts 325°
2026-05-06 10:58 54.91544 8.77240 26929 ft 433 kts 334°
2026-05-06 10:58 54.94357 8.75336 26929 ft 434 kts 335°
2026-05-06 10:59 54.97106 8.73481 26945 ft 434 kts 334°
2026-05-06 10:59 54.99919 8.71579 26939 ft 434 kts 334°
2026-05-06 10:59 55.02733 8.69671 26937 ft 434 kts 334°
2026-05-06 10:59 55.05544 8.67757 26970 ft 435 kts 334°
2026-05-06 11:00 55.08372 8.65827 27420 ft 438 kts 334°
2026-05-06 11:00 55.11215 8.63886 27855 ft 441 kts 334°
2026-05-06 11:00 55.14083 8.61931 28269 ft 444 kts 334°
2026-05-06 11:00 55.16970 8.59962 28671 ft 447 kts 334°
2026-05-06 11:01 55.19880 8.57976 29081 ft 450 kts 334°
2026-05-06 11:01 55.22809 8.55974 29493 ft 453 kts 334°
2026-05-06 11:01 55.25750 8.53957 29911 ft 455 kts 333°
2026-05-06 11:01 55.28704 8.51928 30260 ft 458 kts 333°
2026-05-06 11:02 55.31682 8.49883 30594 ft 460 kts 333°
2026-05-06 11:02 55.34669 8.47833 30929 ft 462 kts 333°
2026-05-06 11:02 55.37670 8.45767 31245 ft 464 kts 333°
2026-05-06 11:02 55.40680 8.43685 31537 ft 466 kts 333°
2026-05-06 11:03 55.43696 8.41596 31985 ft 465 kts 333°
2026-05-06 11:03 55.46701 8.39511 32437 ft 464 kts 333°
2026-05-06 11:03 55.49705 8.37420 32881 ft 463 kts 333°
2026-05-06 11:03 55.52692 8.35341 33425 ft 460 kts 333°
2026-05-06 11:04 55.55659 8.33274 33930 ft 458 kts 333°
2026-05-06 11:04 55.58614 8.31207 34327 ft 456 kts 333°
2026-05-06 11:04 55.61560 8.29133 34698 ft 455 kts 333°
2026-05-06 11:04 55.64488 8.27008 35068 ft 454 kts 332°
2026-05-06 11:05 55.67394 8.24844 35399 ft 453 kts 332°
2026-05-06 11:05 55.70263 8.22684 35732 ft 453 kts 332°
2026-05-06 11:05 55.73161 8.20501 36065 ft 452 kts 332°
2026-05-06 11:05 55.76094 8.18296 36380 ft 452 kts 332°
2026-05-06 11:06 55.78955 8.16148 36679 ft 452 kts 332°
2026-05-06 11:06 55.81848 8.13980 36973 ft 452 kts 333°
2026-05-06 11:06 55.84744 8.11816 37279 ft 451 kts 333°
2026-05-06 11:06 55.87640 8.09649 37570 ft 451 kts 333°
2026-05-06 11:07 55.90528 8.07488 37847 ft 451 kts 333°
2026-05-06 11:07 55.93421 8.05312 37969 ft 451 kts 333°
2026-05-06 11:07 55.95373 8.03843 37986 ft 451 kts 333°
2026-05-06 11:08 56.01148 7.99500 37989 ft 450 kts 333°
2026-05-06 11:08 56.06915 7.95154 38005 ft 450 kts 332°
2026-05-06 11:09 56.12671 7.90784 37994 ft 449 kts 332°
2026-05-06 11:09 56.18423 7.86423 37999 ft 449 kts 332°
2026-05-06 11:10 56.24179 7.82027 37995 ft 449 kts 332°
2026-05-06 11:10 56.29931 7.77609 38011 ft 450 kts 332°
2026-05-06 11:11 56.35683 7.73173 38025 ft 450 kts 332°
2026-05-06 11:11 56.41433 7.68743 38029 ft 449 kts 332°
2026-05-06 11:12 56.47181 7.64302 38029 ft 449 kts 332°
2026-05-06 11:12 56.52925 7.59847 38032 ft 449 kts 332°
2026-05-06 11:13 56.58619 7.55408 38026 ft 448 kts 332°
2026-05-06 11:13 56.64344 7.50930 38030 ft 447 kts 331°
2026-05-06 11:14 56.70052 7.46462 38023 ft 446 kts 331°
2026-05-06 11:14 56.75754 7.41978 38031 ft 446 kts 331°
2026-05-06 11:15 56.81449 7.37484 38027 ft 446 kts 331°
2026-05-06 11:15 56.87141 7.32963 38024 ft 446 kts 331°
2026-05-06 11:16 56.92832 7.28441 38050 ft 446 kts 331°
2026-05-06 11:16 56.98517 7.23911 38044 ft 446 kts 331°
2026-05-06 11:17 57.04445 7.20304 38027 ft 451 kts 338°
2026-05-06 11:17 57.10457 7.17017 38024 ft 451 kts 338°
2026-05-06 11:18 57.16464 7.13687 38026 ft 451 kts 338°
2026-05-06 11:18 57.22466 7.10348 38048 ft 451 kts 338°
2026-05-06 11:19 57.28476 7.07009 38033 ft 451 kts 338°
2026-05-06 11:19 57.34489 7.03669 38041 ft 451 kts 338°
2026-05-06 11:20 57.40503 7.00315 38041 ft 451 kts 338°
2026-05-06 11:20 57.46482 6.96973 38067 ft 452 kts 338°
2026-05-06 11:21 57.52497 6.93586 38056 ft 452 kts 338°
2026-05-06 11:21 57.58518 6.90168 38052 ft 452 kts 338°
2026-05-06 11:22 57.64536 6.86747 38046 ft 452 kts 338°
2026-05-06 11:22 57.70557 6.83335 38042 ft 452 kts 338°
2026-05-06 11:23 57.76617 6.79884 38063 ft 452 kts 337°
2026-05-06 11:23 57.82633 6.76444 38055 ft 452 kts 337°
2026-05-06 11:24 57.88602 6.73014 38048 ft 452 kts 337°
2026-05-06 11:24 57.94608 6.69541 38063 ft 451 kts 337°
2026-05-06 11:25 58.00614 6.66066 38043 ft 451 kts 337°
2026-05-06 11:25 58.06611 6.62590 38043 ft 451 kts 337°
2026-05-06 11:26 58.12603 6.59098 38034 ft 451 kts 337°
2026-05-06 11:26 58.18592 6.55591 38035 ft 451 kts 337°
2026-05-06 11:27 58.24593 6.52078 38029 ft 451 kts 337°
2026-05-06 11:27 58.30588 6.48551 38030 ft 451 kts 337°
2026-05-06 11:28 58.36587 6.45008 38058 ft 451 kts 337°
2026-05-06 11:28 58.42575 6.41447 38049 ft 451 kts 337°
2026-05-06 11:29 58.48563 6.37868 38043 ft 451 kts 337°
2026-05-06 11:29 58.54539 6.34310 38042 ft 451 kts 337°
2026-05-06 11:30 58.60538 6.30725 38043 ft 451 kts 337°
2026-05-06 11:30 58.66528 6.27115 38064 ft 451 kts 337°
2026-05-06 11:31 58.72506 6.23486 38062 ft 450 kts 337°
2026-05-06 11:31 58.78481 6.19855 37865 ft 450 kts 337°
2026-05-06 11:31 58.81464 6.18045 37600 ft 449 kts 337°
2026-05-06 11:32 58.84403 6.16260 37339 ft 448 kts 337°
2026-05-06 11:32 58.87370 6.14468 37072 ft 448 kts 337°
2026-05-06 11:32 58.90348 6.12667 36479 ft 449 kts 336°
2026-05-06 11:32 58.93348 6.10841 35699 ft 454 kts 336°
2026-05-06 11:33 58.96353 6.09000 35222 ft 451 kts 335°
2026-05-06 11:33 58.99343 6.07161 34666 ft 450 kts 335°
2026-05-06 11:33 59.02328 6.05317 34110 ft 450 kts 334°
2026-05-06 11:33 59.05300 6.03473 33494 ft 448 kts 334°
2026-05-06 11:34 59.08308 6.01852 32934 ft 451 kts 341°
2026-05-06 11:34 59.11376 6.00680 32372 ft 448 kts 341°
2026-05-06 11:34 59.14429 5.99536 31811 ft 445 kts 341°
2026-05-06 11:34 59.17456 5.98408 31307 ft 441 kts 341°
2026-05-06 11:35 59.20458 5.97283 30745 ft 439 kts 340°
2026-05-06 11:35 59.23437 5.96150 30366 ft 433 kts 340°
2026-05-06 11:35 59.26392 5.95015 29719 ft 431 kts 340°
2026-05-06 11:35 59.29268 5.93911 29284 ft 424 kts 340°
2026-05-06 11:36 59.32165 5.92800 28718 ft 421 kts 340°
2026-05-06 11:36 59.35021 5.91712 28180 ft 418 kts 340°
2026-05-06 11:36 59.37848 5.90628 27740 ft 412 kts 340°
2026-05-06 11:36 59.40649 5.89542 27237 ft 407 kts 340°
2026-05-06 11:37 59.43427 5.88526 26716 ft 408 kts 344°
2026-05-06 11:37 59.46252 5.88020 26248 ft 406 kts 346°
2026-05-06 11:37 59.49060 5.87562 25768 ft 404 kts 345°
2026-05-06 11:37 59.51852 5.87103 25353 ft 400 kts 346°
2026-05-06 11:38 59.54618 5.86653 24872 ft 397 kts 346°
2026-05-06 11:38 59.57314 5.86218 24477 ft 391 kts 346°
2026-05-06 11:38 59.60015 5.85771 23971 ft 389 kts 346°
2026-05-06 11:38 59.62698 5.85331 23520 ft 385 kts 346°
2026-05-06 11:39 59.65352 5.84900 22955 ft 381 kts 346°
2026-05-06 11:39 59.67986 5.84467 22446 ft 378 kts 346°
2026-05-06 11:39 59.70586 5.84031 22063 ft 372 kts 346°
2026-05-06 11:39 59.73122 5.83609 22012 ft 358 kts 346°
2026-05-06 11:40 59.75541 5.83222 22029 ft 351 kts 345°
2026-05-06 11:40 59.77994 5.82815 22027 ft 348 kts 344°
2026-05-06 11:40 59.80400 5.82408 22024 ft 347 kts 344°
2026-05-06 11:40 59.82784 5.81893 22028 ft 340 kts 339°
2026-05-06 11:41 59.85079 5.81049 22027 ft 340 kts 339°
2026-05-06 11:41 59.87406 5.80203 22038 ft 340 kts 339°
2026-05-06 11:41 59.89743 5.79357 21487 ft 346 kts 339°
2026-05-06 11:41 59.92146 5.78471 20698 ft 354 kts 340°
2026-05-06 11:42 59.94571 5.77587 20169 ft 354 kts 340°
2026-05-06 11:42 59.96988 5.76723 19699 ft 352 kts 340°
2026-05-06 11:42 59.99390 5.75870 19259 ft 350 kts 340°
2026-05-06 11:42 60.01780 5.75022 18808 ft 348 kts 341°
2026-05-06 11:43 60.04152 5.74171 18394 ft 345 kts 341°
2026-05-06 11:43 60.06504 5.73322 17969 ft 342 kts 340°
2026-05-06 11:43 60.08842 5.72475 17422 ft 341 kts 341°
2026-05-06 11:44 60.13472 5.70792 16526 ft 335 kts 342°
2026-05-06 11:44 60.15770 5.70051 16087 ft 334 kts 344°
2026-05-06 11:44 60.18069 5.69403 15656 ft 332 kts 345°
2026-05-06 11:44 60.20349 5.68799 15210 ft 329 kts 346°
2026-05-06 11:45 60.22614 5.68206 14709 ft 327 kts 346°
2026-05-06 11:45 60.24861 5.67607 14312 ft 324 kts 347°
2026-05-06 11:45 60.27091 5.66999 13955 ft 322 kts 347°
2026-05-06 11:45 60.29278 5.66394 13805 ft 312 kts 347°
2026-05-06 11:46 60.31397 5.65805 13654 ft 303 kts 347°
2026-05-06 11:46 60.33466 5.65224 13399 ft 298 kts 347°
2026-05-06 11:46 60.35513 5.64641 13031 ft 298 kts 349°
2026-05-06 11:46 60.37567 5.64049 12584 ft 298 kts 349°
2026-05-06 11:47 60.39588 5.63468 12188 ft 297 kts 349°
2026-05-06 11:47 60.41628 5.62882 11811 ft 295 kts 349°
2026-05-06 11:47 60.43626 5.62311 11677 ft 285 kts 349°
2026-05-06 11:47 60.45559 5.61766 11541 ft 276 kts 349°
2026-05-06 11:48 60.47430 5.61230 11347 ft 268 kts 347°
2026-05-06 11:48 60.49183 5.59899 10508 ft 273 kts 323°
2026-05-06 11:48 60.50499 5.57152 9687 ft 273 kts 298°
2026-05-06 11:48 60.51121 5.53577 8941 ft 268 kts 275°
2026-05-06 11:49 60.51131 5.49812 8175 ft 266 kts 268°
2026-05-06 11:49 60.51078 5.46073 7464 ft 264 kts 268°
2026-05-06 11:49 60.51023 5.42372 6777 ft 261 kts 268°
2026-05-06 11:49 60.50968 5.38786 6540 ft 243 kts 268°
2026-05-06 11:50 60.50918 5.35470 6237 ft 230 kts 268°
2026-05-06 11:50 60.50871 5.32268 5730 ft 225 kts 268°
2026-05-06 11:50 60.50781 5.29117 5188 ft 223 kts 260°
2026-05-06 11:50 60.50295 5.26167 4717 ft 222 kts 243°
2026-05-06 11:51 60.49532 5.23438 4132 ft 222 kts 242°
2026-05-06 11:51 60.48793 5.20815 4000 ft 206 kts 242°
2026-05-06 11:51 60.48080 5.18326 4005 ft 204 kts 236°
2026-05-06 11:51 60.47022 5.16568 4005 ft 195 kts 204°
2026-05-06 11:52 60.45706 5.16277 4016 ft 188 kts 175°
2026-05-06 11:52 60.44449 5.16716 3787 ft 183 kts 174°
2026-05-06 11:52 60.43160 5.17152 3298 ft 192 kts 173°
2026-05-06 11:52 60.41859 5.17592 2929 ft 187 kts 173°
2026-05-06 11:53 60.40588 5.18024 2457 ft 183 kts 174°
2026-05-06 11:53 60.39388 5.18432 2233 ft 169 kts 173°
2026-05-06 11:53 60.38253 5.18818 1898 ft 165 kts 174°
2026-05-06 11:53 60.37162 5.19183 1648 ft 155 kts 174°
2026-05-06 11:54 60.36145 5.19525 1415 ft 141 kts 173°
2026-05-06 11:54 60.35191 5.19844 1199 ft 138 kts 175°
2026-05-06 11:54 60.34253 5.20160 999 ft 136 kts 174°
2026-05-06 11:54 60.33322 5.20472 822 ft 135 kts 173°
2026-05-06 11:55 60.32399 5.20776 619 ft 134 kts 172°
2026-05-06 11:55 60.31482 5.21093 412 ft 133 kts 172°
2026-05-06 11:55 60.30572 5.21401 251 ft 132 kts 171°
2026-05-06 11:55 60.29693 5.21703 175 ft 116 kts 170°
2026-05-06 11:56 60.29167 5.21884 178 ft 43 kts 170°
2026-05-06 11:56 60.28949 5.21952 175 ft 19 kts 167°
2026-05-06 11:56 60.28913 5.22121 173 ft 11 kts 81°
2026-05-06 11:56 60.28917 5.22168 174 ft 0 kts 78°
2026-05-06 11:58 60.28918 5.22178 174 ft 5 kts 79°
2026-05-06 11:58 60.28926 5.22260 174 ft 6 kts 80°
2026-05-06 11:58 60.28930 5.22360 174 ft 8 kts 102°
2026-05-06 11:59 60.28893 5.22421 174 ft 3 kts 124°
2026-05-06 11:59 60.28894 5.22465 174 ft 3 kts 89°
2026-05-06 11:59 60.28895 5.22501 174 ft 2 kts 86°
2026-05-06 11:59 60.28896 5.22530 174 ft 2 kts 85°
2026-05-06 12:00 60.28896 5.22536 174 ft 0 kts 84°